User: anonymous   Login
Location: *
(58.7167°N, 26.1833°E)
Time: 15:24:07
(UTC+00:00)
Language:

Cosmos 1842 - Orbit

View from above orbital plane
View from above orbital plane
View from above satellite
View from above satellite

Ground track
Ground track

The orbit data is extracted from the following two-line orbital elements,

1 17911U 87038A   19291.88658469  .00001060  00000-0  59784-4 0  9995
2 17911  82.5216  78.1759 0011499 176.7458 183.3850 15.12062050770783
Epoch (UTC): 18 October 2019 21:16:40
Eccentricity: 0.0011499
inclination: 82.5216°
perigee height: 522 km
apogee height: 538 km
right ascension of ascending node: 78.1759°
argument of perigee: 176.7458°
revolutions per day: 15.12062050
mean anomaly at epoch: 183.3850°
orbit number at epoch: 77078

The dashed part of the orbit path shows where the satellite is in the earth's shadow,  

DLR